Simultaneous Nadir Overpasses (SNOs) Predictions

Prediction of SNOs between GOES-15 and METOP-A Satellite Orbit:

Table of predicted SNOs for the next 14.0 days since TLE Epoch: 11/29/2014
Index Date Time (GOES-15) GOES-15 Lat,Lon METOP-A Lat,Lon Distance(km) Time Diff (sec)
1 11/29/2014 18:49:32 -0.18,-135.19 0.71,-139.28 465.04 80
2 11/30/2014 18:26:13 -0.19,-135.22 -0.39,-134.28 106.38 80
3 12/02/2014 06:47:53 0.17,-135.23 -0.66,-138.87 415.35 80
4 12/03/2014 06:24:35 0.18,-135.25 0.49,-133.89 155.34 80
5 12/04/2014 18:46:06 -0.17,-135.29 0.55,-138.44 359.29 80
6 12/05/2014 18:22:48 -0.18,-135.31 -0.61,-133.46 211.56 80
7 12/07/2014 06:44:28 0.16,-135.32 -0.43,-138.05 310.63 80
8 12/08/2014 06:21:08 0.17,-135.33 0.68,-133.06 259.56 80
9 12/09/2014 18:42:40 -0.14,-135.36 0.36,-137.61 256.18 80
10 12/10/2014 18:19:20 -0.15,-135.38 -0.75,-132.62 314.25 80
11 12/12/2014 06:41:01 0.13,-135.38 -0.26,-137.21 208.14 80




NCC Satellite Simultaneous Nadir Overpasses (SNOs) Prediction Service
